Regional Weather Roundup
Issued by NWS

Home | Current Version | Previous Version | Text Only | Print | Product List | Glossary On
Versions: 1 2 3 4 5 6 7 8 9 10 11 12 13 14 15 16 17 18 19 20 21 22 23 24 25 26 27 28 29 30 31 32 33 34 35 36 37 38 39 40 41 42 43 44 45 46 47 48 49 50
000
ASUS44 KFWD 182215
RWRTX
NORTH TEXAS HOURLY WEATHER ROUNDUP
NATIONAL WEATHER SERVICE FORT WORTH TX
500 PM CDT SAT APR 18 2015

NOTE: "FAIR" INDICATES FEW OR NO CLOUDS BELOW 12,000 FEET WITH NO
SIGNIFICANT WEATHER AND/OR OBSTRUCTIONS TO VISIBILITY.

TXZ118-119-182300-
DALLAS/FORT WORTH METROPLEX

CITY           SKY/WX    TMP DP  RH WIND       PRES   REMARKS
DFW AIRPORT    PTSUNNY   78  63  59 SE8       29.75F
DALLAS LOVE    MOSUNNY   79  61  53 E10       29.75F
FTW MEACHAM    MOSUNNY   79  63  57 E7        29.75F
DAL-EXECUTIVE  MOSUNNY   77  63  61 SE12      29.75F
FTW-ALLIANCE   PTSUNNY   78  62  57 E5        29.76F
FTW-NAS-JRB    PTSUNNY   81  61  50 E7        29.80F
FTW-SPINKS     PTSUNNY   79  63  57 SE9       29.78F
ARLINGTON      MOSUNNY   81  62  52 SE12      29.75F
ADDISON        MOSUNNY   79  59  50 SE10G18   29.78R
MESQUITE       MOSUNNY   81  64  57 E10       29.76F
LANCASTER      SUNNY     78  63  59 SE6       29.76F
$$

TXZ091>094-102>105-117-120-121-131>134-182300-
NORTH CENTRAL TEXAS

CITY           SKY/WX    TMP DP  RH WIND       PRES   REMARKS
SHRMAN/DENISON MOSUNNY   78  65  63 E8        29.78F
GAINESVILLE    PTSUNNY   76  61  59 SE8       29.80S
BOWIE          MOSUNNY   74  60  63 S3        29.79S
BRIDGEPORT     MOSUNNY   75  64  68 CALM      29.79S
DECATUR        PTSUNNY   76  61  60 E8        29.78S
DENTON         MOSUNNY   77  60  55 E7        29.76F
MCKINNEY       PTSUNNY   78  62  57 E8        29.76F
GREENVILLE     MOSUNNY   81  59  47 CALM      29.78F
ROCKWALL       SUNNY     79  62  55 SE8       29.76F
TERRELL        SUNNY     81  62  52 NE7       29.77F
WAXAHACHIE     MOSUNNY   79  65  63 E5        29.77F
CLEBURNE       MOSUNNY   77  68  73 SE13      29.78F
GRANBURY         N/A     80  62  54 E7        29.77S
$$

TXZ083>090-098>101-113>116-127>130-139>142-154-155-182300-
WESTERN NORTH TEXAS

CITY           SKY/WX    TMP DP  RH WIND       PRES   REMARKS
WICHITA FALLS  LGT RAIN  71  49  45 SE13G23   29.77S
WF-KICKAPOO    CLOUDY    74  43  32 E9        29.77F
VERNON         MOSUNNY   80  56  44 E10       29.72F
ABILENE        PTSUNNY   75  50  41 S9        29.74F
ABILENE-DYESS  TSTM      73  50  43 SW13      29.74F
BRECKENRIDGE   PTSUNNY   73  54  52 E3        29.73F
GRAHAM         LGT RAIN  67  66  96 SE8       29.73F
MINERAL WELLS  PTSUNNY   77  62  59 E9        29.74F
STEPHENVILLE   SUNNY     76  61  58 E9        29.79F
COMANCHE       PTSUNNY   75  62  62 E8        29.76F
BROWNWOOD      LGT RAIN  70  57  64 W24G33    29.86R
COLEMAN        TSTM      65  54  65 SE26G33   29.77F
$$

TXZ143>147-156>162-174-175-182300-
CENTRAL TEXAS

CITY           SKY/WX    TMP DP  RH WIND       PRES   REMARKS
WACO           MOSUNNY   77  64  64 SE8       29.77F
WACO-TSTC      MOSUNNY   79  64  61 SE6       29.78F
WACO-MCGREGOR  MOSUNNY   81  64  57 SE15      29.79S
HILLSBORO      SUNNY     78  63  61 E8        29.77F
CORSICANA      MOSUNNY   80  64  58 E6        29.78F
MEXIA          PTSUNNY   77  65  65 E7        29.77F
HEARNE         CLOUDY    76  67  73 SE3       29.78F
CAMERON        CLOUDY    77  67  71 E6        29.77F
TEMPLE         MOSUNNY   77  61  57 SE10      29.78F
KILLEEN        PTSUNNY   76  63  63 SE13      29.77F
FORT HOOD      MOSUNNY   78  63  61 E16       29.76F
GATESVILLE     MOSUNNY   79  63  57 SE8       29.79F
HAMILTON       PTSUNNY   76  61  59 SE16G23   29.79F
LAMPASAS       MOSUNNY   78  65  65 E12       29.76F
$$

TXZ095>097-106>112-122>126-135>138-148>153-164>167-182300-
EAST TEXAS

CITY           SKY/WX    TMP DP  RH WIND       PRES   REMARKS
PARIS          SUNNY     75  61  60 MISG      29.80F
SULPHUR SPRNGS   N/A     78  64  62 E8        29.81F
MOUNT PLEASANT MOSUNNY   74  63  67 E6        29.82F
GILMER         MOSUNNY   74  67  79 N3        29.80S
TYLER          PTSUNNY   80  63  55 NE5       29.78F
LONGVIEW       PTSUNNY   79  66  64 NE10      29.78F
MARSHALL       PTSUNNY   76  68  75 E5        29.82S
ATHENS         MOSUNNY   77  63  61 CALM      29.76F
PALESTINE      PTSUNNY   81  67  61 CALM      29.80S
JACKSONVILLE   PTSUNNY   78  63  58 CALM      29.81S
HENDERSON      PTSUNNY   74  63  67 NE3       29.81R
NACOGDOCHES    CLOUDY    73  68  83 SW3       29.80S
LUFKIN         CLOUDY    80  67  64 SW6       29.80R
$$

SUPPLEMENTAL OBSERVATIONS (CENTRAL)

CITY           SKY/WX    TMP DP  RH WIND       PRES   REMARKS
PAT MAYSE LAKE   N/A     75  61  60 NE6         N/A
GREENVILLE       N/A     79  59  50 E7          N/A
CEDAR HILL       N/A     77  63  61 SE5G13      N/A
LAKE LIMESTONE   N/A     79  64  61 SE3         N/A
MCGREGOR         N/A     77  63  61 SE8         N/A
TEMPLE           N/A     75  63  64 E8          N/A
$$

SUPPLEMENTAL OBSERVATIONS (WEST)

CITY           SKY/WX    TMP DP  RH WIND       PRES   REMARKS
MILLERS CREEK    N/A     79  55  44 SE9         N/A
POSSUM KINGDOM   N/A     55  50  82 E13G43      N/A
GRANBURY         N/A     79  61  53 SE10        N/A
COMANCHE         N/A     73  59  60 SE14G24     N/A
HAMBY            N/A     75  54  46 SW8         N/A
IVIE RESERVOIR   N/A     59  54  82 E10G33      N/A
COLORADO BEND    N/A     75  61  60 S9G17       N/A
$$

SUPPLEMENTAL OBSERVATIONS (EAST)

CITY           SKY/WX    TMP DP  RH WIND       PRES   REMARKS
CLARKSVILLE      N/A     75  61  60 E7G15       N/A
TEXARKANA        N/A     75  63  64 E5          N/A
LINDEN           N/A     72  64  78 E3          N/A
CADDO LAKE       N/A     75  66  73 E5          N/A
GILMER           N/A     75  66  73 E7G16       N/A
HENDERSON        N/A     73  64  73 NE6G17      N/A
LUFKIN           N/A     79  66  65 MISG        N/A
N SABINE NF      N/A     79  72  78 MISG        N/A
S SABINE NF      N/A     73  68  83 CALM        N/A
$$

SUPPLEMENTAL OBSERVATIONS ARE A COLLECTION OF AUTOMATED INSTRUMENTS
THAT ARE MAINTAINED BY A VARIETY OF FEDERAL AND STATE AGENCIES.
CERTAIN ELEMENTS...SUCH AS HUMIDITY VALUES AND SUSTAINED WIND
SPEEDS...MAY BE APPROXIMATED.



USA.gov is the U.S. government's official web portal to all federal, state and local government web resources and services.